date,City,No. Stations,Air Quality,Index Value,Prominent Pollutant
2021-11-13,Munger,1.0,Poor,246,PM2.5
2021-11-14,Munger,1.0,Poor,215,PM2.5
2021-11-15,Munger,1.0,Poor,289,PM2.5
2021-11-16,Munger,1.0,Poor,257,PM2.5
2021-11-17,Munger,1.0,Poor,262,PM2.5
2021-11-18,Munger,1.0,Poor,252,PM2.5
2021-11-19,Munger,1.0,Poor,265,PM2.5
2021-11-20,Munger,1.0,Very Poor,311,PM2.5
2021-11-21,Munger,1.0,Very Poor,363,PM2.5
2021-11-22,Munger,1.0,Very Poor,388,PM2.5
2021-11-23,Munger,1.0,Very Poor,338,PM2.5
2021-11-24,Munger,1.0,Moderate,197,PM10
2021-11-26,Munger,1.0,Very Poor,335,PM2.5
2021-12-01,Munger,1.0,Very Poor,387,PM2.5
2021-12-07,Munger,1.0,Very Poor,343,PM2.5
2021-12-09,Munger,1.0,Very Poor,349,PM2.5
2021-12-12,Munger,1.0,Very Poor,399,PM2.5
2021-12-13,Munger,1.0,Poor,225,PM10
2021-12-14,Munger,1.0,Moderate,169,PM2.5
2021-12-15,Munger,1.0,Poor,255,PM10
2021-12-16,Munger,1.0,Poor,242,PM10
2021-12-17,Munger,1.0,Moderate,191,PM10
2021-12-18,Munger,1.0,Poor,213,PM10
2021-12-19,Munger,1.0,Satisfactory,88,PM2.5
2021-12-20,Munger,1.0,Very Poor,306,PM2.5
2021-12-21,Munger,1.0,Poor,226,PM10
2021-12-22,Munger,1.0,Very Poor,305,PM2.5
2021-12-23,Munger,1.0,Poor,253,PM10
2021-12-24,Munger,1.0,Poor,227,PM10
2021-12-25,Munger,1.0,Very Poor,306,PM10
2021-12-26,Munger,1.0,Poor,257,PM10
2021-12-27,Munger,1.0,Poor,283,PM10
2021-12-28,Munger,1.0,Poor,217,PM10
2021-12-29,Munger,1.0,Poor,264,PM2.5
2021-12-30,Munger,1.0,Moderate,101,PM2.5
2021-12-31,Munger,1.0,Poor,212,PM2.5
2022-01-01,Munger,1.0,Poor,256,PM2.5
2022-01-02,Munger,1.0,Poor,258,PM2.5
2022-01-03,Munger,1.0,Very Poor,381,PM2.5
2022-01-04,Munger,1.0,Severe,409,PM2.5
2022-01-05,Munger,1.0,Very Poor,397,PM2.5
2022-01-06,Munger,1.0,Severe,445,PM2.5
2022-01-07,Munger,1.0,Severe,427,PM2.5
2022-01-08,Munger,1.0,Very Poor,344,PM2.5
2022-01-09,Munger,1.0,Very Poor,329,PM2.5
2022-01-10,Munger,1.0,Very Poor,375,PM2.5
2022-01-11,Munger,1.0,Severe,414,PM2.5
2022-01-12,Munger,1.0,Very Poor,375,PM2.5
2022-01-13,Munger,1.0,Poor,260,PM2.5
2022-01-14,Munger,1.0,Very Poor,304,PM2.5
2022-01-15,Munger,1.0,Very Poor,376,PM2.5
2022-01-16,Munger,1.0,Very Poor,343,PM2.5
2022-01-17,Munger,1.0,Very Poor,364,PM2.5
2022-01-18,Munger,1.0,Severe,423,PM2.5
2022-01-19,Munger,1.0,Very Poor,397,PM2.5
2022-01-20,Munger,1.0,Severe,410,PM2.5
2022-01-21,Munger,1.0,Severe,441,PM2.5
2022-01-22,Munger,1.0,Very Poor,381,PM2.5
2022-01-23,Munger,1.0,Severe,425,PM2.5
2022-01-24,Munger,1.0,Very Poor,389,PM2.5
2022-01-25,Munger,1.0,Severe,402,PM2.5
2022-01-26,Munger,1.0,Very Poor,343,PM2.5
2022-01-27,Munger,1.0,Very Poor,308,PM2.5
2022-01-28,Munger,1.0,Very Poor,324,PM2.5
2022-01-29,Munger,1.0,Very Poor,357,PM2.5
2022-01-30,Munger,1.0,Very Poor,376,PM2.5
2022-01-31,Munger,1.0,Severe,404,PM2.5
2022-02-02,Munger,1.0,Very Poor,397,PM2.5
2022-02-03,Munger,1.0,Severe,413,PM2.5
2022-02-04,Munger,1.0,Poor,251,PM2.5
2022-02-06,Munger,1.0,Poor,216,PM2.5
2022-02-07,Munger,1.0,Poor,292,PM2.5
2022-02-08,Munger,1.0,Very Poor,338,PM2.5
2022-02-09,Munger,1.0,Very Poor,385,PM2.5
2022-02-10,Munger,1.0,Severe,401,PM2.5
2022-02-11,Munger,1.0,Very Poor,331,PM2.5
2022-02-12,Munger,1.0,Poor,254,PM2.5
2022-02-13,Munger,1.0,Poor,245,PM2.5
2022-02-14,Munger,1.0,Poor,279,PM2.5
2022-02-15,Munger,1.0,Very Poor,348,PM2.5
2022-02-16,Munger,1.0,Very Poor,324,PM2.5
2022-02-17,Munger,1.0,Very Poor,342,PM2.5
2022-02-18,Munger,1.0,Poor,289,PM2.5
2022-02-19,Munger,1.0,Poor,241,PM2.5
2022-02-20,Munger,1.0,Poor,211,PM2.5
2022-02-21,Munger,1.0,Poor,236,PM2.5
2022-02-22,Munger,1.0,Very Poor,317,PM2.5
2022-02-23,Munger,1.0,Very Poor,336,PM2.5
2022-02-24,Munger,1.0,Very Poor,328,PM2.5
2022-02-25,Munger,1.0,Very Poor,343,PM2.5
2022-02-26,Munger,1.0,Very Poor,312,PM2.5
2022-02-27,Munger,1.0,Very Poor,337,PM2.5
2022-02-28,Munger,1.0,Moderate,196,PM2.5
2022-03-01,Munger,1.0,Poor,228,PM2.5
2022-03-02,Munger,1.0,Moderate,176,PM10
2022-03-03,Munger,1.0,Moderate,163,PM10
2022-03-04,Munger,1.0,Poor,217,PM10
2022-03-05,Munger,1.0,Moderate,155,PM10
2022-03-06,Munger,1.0,Moderate,158,PM10
2022-03-07,Munger,1.0,Moderate,184,PM10
2022-03-08,Munger,1.0,Moderate,191,PM10
2022-03-09,Munger,1.0,Moderate,174,PM10
2022-03-10,Munger,1.0,Moderate,185,PM10
2022-03-11,Munger,1.0,Moderate,188,PM10
2022-03-12,Munger,1.0,Moderate,192,PM10
2022-03-13,Munger,1.0,Moderate,200,PM10
2022-03-14,Munger,1.0,Moderate,189,PM10
2022-03-15,Munger,1.0,Moderate,194,PM10
2022-03-16,Munger,1.0,Poor,255,PM10
2022-03-17,Munger,1.0,Poor,291,PM10
2022-03-18,Munger,1.0,Very Poor,312,PM10
2022-03-19,Munger,1.0,Poor,206,PM10
2022-03-20,Munger,1.0,Poor,247,PM10
2022-03-21,Munger,1.0,Very Poor,344,PM10
2022-03-22,Munger,1.0,Very Poor,303,PM10
2022-03-23,Munger,1.0,Very Poor,303,PM10
2022-03-24,Munger,1.0,Poor,266,PM10
2022-03-25,Munger,1.0,Poor,243,PM10
2022-03-26,Munger,1.0,Poor,282,PM10
2022-03-27,Munger,1.0,Poor,236,PM10
2022-03-28,Munger,1.0,Very Poor,331,PM10
2022-03-29,Munger,1.0,Very Poor,318,PM2.5
2022-03-30,Munger,1.0,Very Poor,305,PM2.5
2022-03-31,Munger,1.0,Poor,209,PM10
2022-04-01,Munger,1.0,Poor,234,PM10
2022-04-02,Munger,1.0,Poor,249,PM2.5
2022-04-03,Munger,1.0,Poor,228,PM2.5
2022-04-04,Munger,1.0,Poor,278,PM2.5
2022-04-05,Munger,1.0,Very Poor,305,PM2.5
2022-04-06,Munger,1.0,Very Poor,317,PM2.5
2022-04-07,Munger,1.0,Poor,270,PM2.5
2022-04-08,Munger,1.0,Poor,225,PM2.5
2022-04-09,Munger,1.0,Poor,243,PM2.5
2022-04-10,Munger,1.0,Moderate,196,PM2.5
2022-04-11,Munger,1.0,Moderate,126,PM10
2022-04-12,Munger,1.0,Moderate,163,PM2.5
2022-04-15,Munger,1.0,Very Poor,318,PM10
2022-04-16,Munger,1.0,Very Poor,318,PM10
2022-04-17,Munger,1.0,Poor,294,PM10
2022-04-18,Munger,1.0,Poor,262,PM10
2022-04-19,Munger,1.0,Moderate,187,PM10
2022-04-20,Munger,1.0,Poor,231,PM10
2022-04-21,Munger,1.0,Moderate,156,PM10
2022-04-22,Munger,1.0,Good,47,O3
2022-04-23,Munger,1.0,Moderate,197,PM10
2022-04-24,Munger,1.0,Very Poor,356,PM10
2022-04-25,Munger,1.0,Very Poor,350,PM10
2022-04-26,Munger,1.0,Very Poor,306,PM10
2022-04-27,Munger,1.0,Poor,296,PM10
2022-04-28,Munger,1.0,Poor,247,PM10
2022-04-29,Munger,1.0,Poor,215,PM10
2022-04-30,Munger,1.0,Poor,283,PM10
2022-05-01,Munger,1.0,Moderate,155,PM10
2022-05-02,Munger,1.0,Moderate,190,PM10
2022-05-08,Munger,1.0,Moderate,180,PM10
2022-05-09,Munger,1.0,Moderate,199,PM2.5
2022-05-10,Munger,1.0,Moderate,114,PM10
2022-05-11,Munger,1.0,Moderate,120,PM10
2022-05-12,Munger,1.0,Moderate,130,PM10
2022-05-13,Munger,1.0,Moderate,153,PM2.5
2022-05-14,Munger,1.0,Moderate,153,PM10
2022-05-15,Munger,1.0,Moderate,188,PM2.5
2022-05-16,Munger,1.0,Moderate,166,PM2.5
2022-05-17,Munger,1.0,Moderate,168,PM10
2022-05-18,Munger,1.0,Moderate,151,PM2.5
2022-05-19,Munger,1.0,Moderate,172,PM10
2022-05-20,Munger,1.0,Moderate,167,PM10
2022-05-22,Munger,1.0,Moderate,163,PM10
2022-05-23,Munger,1.0,Moderate,143,PM10
2022-05-24,Munger,1.0,Moderate,162,PM10
2022-05-25,Munger,1.0,Moderate,125,PM10
2022-05-26,Munger,1.0,Moderate,111,PM10
2022-05-28,Munger,1.0,Moderate,185,PM10
2022-05-29,Munger,1.0,Moderate,149,PM2.5
2022-05-30,Munger,1.0,Moderate,151,PM10
2022-05-31,Munger,1.0,Moderate,171,PM2.5
2022-06-01,Munger,1.0,Moderate,162,PM10
2022-06-02,Munger,1.0,Moderate,173,PM10
2022-06-03,Munger,1.0,Moderate,134,PM10
2022-06-04,Munger,1.0,Moderate,184,PM10
2022-06-07,Munger,1.0,Moderate,143,PM10
2022-06-08,Munger,1.0,Moderate,148,PM10
2022-06-09,Munger,1.0,Moderate,165,PM10
2022-06-10,Munger,1.0,Moderate,163,PM10
2022-06-11,Munger,1.0,Moderate,194,PM10
2022-06-12,Munger,1.0,Moderate,200,PM10
2022-06-13,Munger,1.0,Moderate,156,PM10
2022-06-14,Munger,1.0,Moderate,171,PM10
2022-06-15,Munger,1.0,Moderate,179,PM10
2022-06-18,Munger,1.0,Moderate,115,PM10
2022-06-20,Munger,1.0,Moderate,122,PM10
2022-06-21,Munger,1.0,Satisfactory,93,PM10
2022-06-22,Munger,1.0,Moderate,136,PM10
2022-06-23,Munger,1.0,Moderate,111,PM10
2022-06-24,Munger,1.0,Moderate,119,PM10
2022-06-25,Munger,1.0,Moderate,130,PM10
2022-06-26,Munger,1.0,Moderate,103,PM10
2022-06-27,Munger,1.0,Moderate,102,PM10
2022-06-28,Munger,1.0,Moderate,132,PM10
2022-06-30,Munger,1.0,Moderate,170,PM10
2022-07-01,Munger,1.0,Satisfactory,88,CO
2022-07-04,Munger,1.0,Moderate,120,PM10
2022-07-07,Munger,1.0,Moderate,102,PM10
2022-07-10,Munger,1.0,Satisfactory,95,PM10
2022-07-11,Munger,1.0,Moderate,110,PM10
2022-07-12,Munger,1.0,Moderate,118,PM10
2022-07-14,Munger,1.0,Moderate,118,PM10
2022-07-16,Munger,1.0,Satisfactory,74,PM10
2022-07-19,Munger,1.0,Satisfactory,88,PM10
2022-07-22,Munger,1.0,Moderate,104,PM10
2022-07-26,Munger,1.0,Moderate,122,CO
2022-07-27,Munger,1.0,Satisfactory,99,CO
2022-07-29,Munger,1.0,Satisfactory,91,PM10
2022-08-02,Munger,1.0,Satisfactory,97,PM10
2022-08-03,Munger,1.0,Moderate,195,PM10
2022-08-05,Munger,1.0,Poor,214,PM10
2022-08-06,Munger,1.0,Satisfactory,58,CO
2022-08-07,Munger,1.0,Moderate,106,PM10
2022-08-08,Munger,1.0,Moderate,113,PM10
2022-08-16,Munger,1.0,Satisfactory,72,PM10
2022-08-22,Munger,1.0,Satisfactory,79,PM10
2022-08-23,Munger,1.0,Moderate,104,PM10
2022-08-26,Munger,1.0,Moderate,102,PM10
2022-08-28,Munger,1.0,Satisfactory,82,PM10
2022-08-29,Munger,1.0,Satisfactory,79,PM10
2022-09-01,Munger,1.0,Satisfactory,77,PM10
2022-09-02,Munger,1.0,Satisfactory,75,PM10
2022-09-03,Munger,1.0,Satisfactory,68,PM10
2022-09-09,Munger,1.0,Moderate,110,PM10
2022-09-10,Munger,1.0,Satisfactory,79,PM2.5
2022-09-11,Munger,1.0,Satisfactory,71,PM10
2022-09-13,Munger,1.0,Satisfactory,54,CO
2022-09-14,Munger,1.0,Satisfactory,79,CO
2022-09-15,Munger,1.0,Satisfactory,67,CO
2022-09-16,Munger,1.0,Satisfactory,52,PM10
2022-09-20,Munger,1.0,Satisfactory,70,CO
2022-09-21,Munger,1.0,Satisfactory,88,PM10
2022-09-26,Munger,1.0,Moderate,102,PM2.5
2022-09-27,Munger,1.0,Satisfactory,82,PM10
2022-09-29,Munger,1.0,Moderate,108,PM10
2022-09-30,Munger,1.0,Satisfactory,66,PM10
2022-10-03,Munger,1.0,Moderate,111,PM10
2022-10-04,Munger,1.0,Satisfactory,65,CO
2022-10-05,Munger,1.0,Satisfactory,65,PM10
2022-10-08,Munger,1.0,Satisfactory,62,PM10
2022-10-13,Munger,1.0,Satisfactory,95,PM10
2022-10-15,Munger,1.0,Satisfactory,87,PM10
2022-10-16,Munger,1.0,Moderate,120,PM10
2022-10-17,Munger,1.0,Moderate,124,PM10
2022-10-18,Munger,1.0,Moderate,166,PM2.5
2022-10-19,Munger,1.0,Moderate,186,PM2.5
2022-10-20,Munger,1.0,Moderate,148,PM2.5
2022-10-21,Munger,1.0,Poor,270,PM2.5
2022-10-22,Munger,1.0,Poor,219,PM2.5
2022-10-23,Munger,1.0,Moderate,152,PM10
2022-10-25,Munger,1.0,Moderate,142,PM2.5
2022-10-26,Munger,1.0,Moderate,143,PM2.5
2022-10-27,Munger,1.0,Moderate,174,PM10
2022-10-29,Munger,1.0,Moderate,169,PM2.5
2022-10-30,Munger,1.0,Moderate,194,PM2.5
2022-10-31,Munger,1.0,Moderate,102,PM2.5
2022-11-02,Munger,1.0,Moderate,121,PM2.5
2022-11-04,Munger,1.0,Moderate,180,PM2.5
2022-11-05,Munger,1.0,Poor,223,PM2.5
2022-11-06,Munger,1.0,Moderate,197,PM2.5
2022-11-07,Munger,1.0,Moderate,166,PM2.5
2022-11-08,Munger,1.0,Moderate,141,PM10
2022-11-09,Munger,1.0,Moderate,166,PM2.5
2022-11-10,Munger,1.0,Moderate,189,PM2.5
2022-11-11,Munger,1.0,Poor,213,PM2.5
2022-11-12,Munger,1.0,Poor,252,PM2.5
2022-11-14,Munger,1.0,Poor,209,PM2.5
2022-11-15,Munger,1.0,Poor,229,PM2.5
2022-11-16,Munger,1.0,Poor,254,PM2.5
2022-11-17,Munger,1.0,Poor,211,PM2.5
2022-11-18,Munger,1.0,Poor,237,PM2.5
2022-11-19,Munger,1.0,Poor,266,PM2.5
2022-11-20,Munger,1.0,Poor,265,PM2.5
2022-11-21,Munger,1.0,Poor,258,PM2.5
2022-11-22,Munger,1.0,Poor,256,PM2.5
2022-11-23,Munger,1.0,Poor,251,PM2.5
2022-11-24,Munger,1.0,Poor,265,PM2.5
2022-11-26,Munger,1.0,Poor,267,PM2.5
2022-11-27,Munger,1.0,Poor,268,PM2.5
2022-11-28,Munger,1.0,Poor,296,PM2.5
2022-11-29,Munger,1.0,Very Poor,324,PM2.5
2022-11-30,Munger,1.0,Very Poor,302,PM2.5
2022-12-01,Munger,1.0,Poor,286,PM2.5
2022-12-02,Munger,1.0,Poor,276,PM2.5
2022-12-03,Munger,1.0,Poor,267,PM2.5
2022-12-04,Munger,1.0,Very Poor,301,PM2.5
2022-12-05,Munger,1.0,Poor,290,PM2.5
2022-12-06,Munger,1.0,Very Poor,317,PM2.5
2022-12-07,Munger,1.0,Very Poor,335,PM10
2022-12-08,Munger,1.0,Very Poor,318,PM2.5
2022-12-09,Munger,1.0,Poor,288,PM10
2022-12-10,Munger,1.0,Very Poor,306,PM2.5
2022-12-11,Munger,1.0,Very Poor,317,PM2.5
2022-12-12,Munger,1.0,Very Poor,334,PM2.5
2022-12-13,Munger,1.0,Very Poor,350,PM2.5
2022-12-14,Munger,1.0,Very Poor,318,PM2.5
2022-12-15,Munger,1.0,Very Poor,308,PM2.5
2022-12-16,Munger,1.0,Poor,267,PM2.5
2022-12-17,Munger,1.0,Poor,293,PM2.5
2022-12-18,Munger,1.0,Very Poor,344,PM2.5
2022-12-19,Munger,1.0,Very Poor,352,PM2.5
2022-12-20,Munger,1.0,Very Poor,347,PM2.5
2022-12-21,Munger,1.0,Very Poor,365,PM10
2022-12-22,Munger,1.0,Very Poor,338,PM2.5
2022-12-23,Munger,1.0,Poor,295,PM2.5
2022-12-24,Munger,1.0,Very Poor,366,PM2.5
2022-12-25,Munger,1.0,Very Poor,365,PM2.5
2022-12-26,Munger,1.0,Very Poor,332,PM2.5
2022-12-27,Munger,1.0,Very Poor,344,PM2.5
2022-12-28,Munger,1.0,Very Poor,319,PM2.5
2022-12-29,Munger,1.0,Very Poor,370,PM10
2022-12-30,Munger,1.0,Very Poor,397,PM2.5
2022-12-31,Munger,1.0,Very Poor,365,PM10
2023-01-03,Munger,1.0,Very Poor,321,PM2.5
2023-01-04,Munger,1.0,Poor,297,PM2.5
2023-01-05,Munger,1.0,Poor,286,PM2.5
2023-01-06,Munger,1.0,Very Poor,332,PM2.5
2023-01-07,Munger,1.0,Very Poor,372,PM10
2023-01-08,Munger,1.0,Very Poor,368,PM10
2023-01-09,Munger,1.0,Very Poor,338,PM2.5
2023-01-10,Munger,1.0,Very Poor,316,PM2.5
2023-01-11,Munger,1.0,Very Poor,328,PM2.5
2023-01-12,Munger,1.0,Very Poor,335,PM2.5
2023-01-13,Munger,1.0,Very Poor,386,PM2.5
2023-01-14,Munger,1.0,Very Poor,383,PM10
2023-01-15,Munger,1.0,Very Poor,314,PM10
2023-01-16,Munger,1.0,Poor,258,PM10
2023-01-17,Munger,1.0,Poor,263,PM2.5
2023-01-18,Munger,1.0,Very Poor,306,PM2.5
2023-01-19,Munger,1.0,Very Poor,328,PM2.5
2023-01-20,Munger,1.0,Very Poor,326,PM2.5
2023-01-21,Munger,1.0,Very Poor,332,PM10
2023-01-22,Munger,1.0,Very Poor,341,PM2.5
2023-01-23,Munger,1.0,Poor,290,PM2.5
2023-01-24,Munger,1.0,Very Poor,351,PM10
2023-01-25,Munger,1.0,Severe,410,PM10
2023-01-26,Munger,1.0,Very Poor,351,PM2.5
2023-01-27,Munger,1.0,Moderate,172,PM2.5
2023-01-28,Munger,1.0,Poor,240,PM2.5
2023-01-29,Munger,1.0,Poor,300,PM2.5
2023-01-30,Munger,1.0,Poor,260,PM2.5
2023-01-31,Munger,1.0,Very Poor,313,PM2.5
2023-02-01,Munger,1.0,Moderate,162,PM2.5
2023-02-02,Munger,1.0,Poor,203,PM2.5
2023-02-03,Munger,1.0,Poor,267,PM2.5
2023-02-04,Munger,1.0,Poor,269,PM2.5
2023-02-05,Munger,1.0,Very Poor,301,PM2.5
2023-02-06,Munger,1.0,Poor,210,PM10
2023-02-07,Munger,1.0,Poor,238,PM2.5
2023-02-09,Munger,1.0,Poor,206,PM2.5
2023-02-10,Munger,1.0,Poor,224,PM10
2023-02-11,Munger,1.0,Poor,287,PM10
2023-02-12,Munger,1.0,Poor,275,PM2.5
2023-02-13,Munger,1.0,Poor,214,PM10
2023-02-14,Munger,1.0,Moderate,170,PM10
2023-02-15,Munger,1.0,Poor,281,PM2.5
2023-02-16,Munger,1.0,Very Poor,340,PM2.5
2023-02-19,Munger,1.0,Very Poor,346,PM2.5
2023-02-20,Munger,1.0,Very Poor,348,PM2.5
2023-02-21,Munger,1.0,Very Poor,324,PM2.5
2023-02-22,Munger,1.0,Poor,290,PM2.5
2023-02-23,Munger,1.0,Moderate,160,PM10
2023-02-24,Munger,1.0,Moderate,180,PM10
2023-02-25,Munger,1.0,Poor,230,PM10
2023-02-26,Munger,1.0,Poor,263,PM10
2023-02-27,Munger,1.0,Poor,253,PM10
2023-02-28,Munger,1.0,Poor,233,PM10
2023-03-01,Munger,1.0,Poor,260,PM10
2023-03-02,Munger,1.0,Poor,279,PM10
2023-03-03,Munger,1.0,Moderate,181,PM10
2023-03-04,Munger,1.0,Poor,213,PM10
2023-03-05,Munger,1.0,Moderate,188,PM10
2023-03-06,Munger,1.0,Moderate,196,PM10
2023-03-07,Munger,1.0,Moderate,172,PM10
2023-03-08,Munger,1.0,Moderate,170,PM2.5
2023-03-09,Munger,1.0,Moderate,199,PM2.5
2023-03-11,Munger,1.0,Moderate,186,PM10
2023-03-12,Munger,1.0,Poor,237,PM10
2023-03-13,Munger,1.0,Poor,287,PM10
2023-03-14,Munger,1.0,Poor,251,PM2.5
2023-03-15,Munger,1.0,Poor,234,PM10
2023-03-16,Munger,1.0,Poor,251,PM10
2023-03-17,Munger,1.0,Poor,242,PM2.5
2023-03-18,Munger,1.0,Poor,209,PM2.5
2023-03-20,Munger,1.0,Moderate,163,PM2.5
2023-03-22,Munger,1.0,Moderate,165,PM10
2023-03-23,Munger,1.0,Moderate,167,PM2.5
2023-03-24,Munger,1.0,Moderate,169,PM10
2023-03-25,Munger,1.0,Poor,248,PM10
2023-03-26,Munger,1.0,Poor,215,PM10
2023-03-27,Munger,1.0,Moderate,149,PM10
2023-03-28,Munger,1.0,Poor,217,PM10
2023-03-29,Munger,1.0,Poor,239,PM10
2023-03-30,Munger,1.0,Poor,266,PM10
2023-03-31,Munger,1.0,Poor,286,PM2.5
2023-04-01,Munger,1.0,Moderate,142,PM10
2023-04-03,Munger,1.0,Moderate,146,PM10
2023-04-04,Munger,1.0,Moderate,184,PM10
2023-04-05,Munger,1.0,Poor,251,PM10
2023-04-06,Munger,1.0,Poor,278,PM10
2023-04-07,Munger,1.0,Poor,229,PM10
2023-04-08,Munger,1.0,Poor,295,PM10
2023-04-09,Munger,1.0,Poor,250,PM10
2023-04-10,Munger,1.0,Poor,220,PM10
2023-04-11,Munger,1.0,Poor,236,PM10
2023-04-12,Munger,1.0,Poor,217,PM10
2023-04-13,Munger,1.0,Poor,249,PM10
2023-04-14,Munger,1.0,Poor,281,PM10
2023-04-15,Munger,1.0,Poor,258,PM10
2023-04-16,Munger,1.0,Poor,293,PM10
2023-04-17,Munger,1.0,Poor,274,PM10
2023-04-18,Munger,1.0,Poor,284,PM10
2023-04-19,Munger,1.0,Poor,269,PM10
2023-04-20,Munger,1.0,Poor,296,PM10
2023-04-21,Munger,1.0,Poor,293,PM10
2023-04-23,Munger,1.0,Moderate,174,PM10
2023-04-24,Munger,1.0,Moderate,159,PM10
2023-04-25,Munger,1.0,Moderate,136,PM10
2023-04-26,Munger,1.0,Poor,213,PM10
2023-04-27,Munger,1.0,Poor,243,PM10
2023-04-28,Munger,1.0,Poor,212,PM10
2023-04-29,Munger,1.0,Poor,241,PM10
2023-04-30,Munger,1.0,Moderate,171,PM10
2023-05-01,Munger,1.0,Moderate,199,PM2.5
2023-05-02,Munger,1.0,Poor,275,PM2.5
2023-05-03,Munger,1.0,Moderate,161,PM10
2023-05-04,Munger,1.0,Poor,202,PM2.5
2023-05-05,Munger,1.0,Moderate,145,PM10
2023-05-06,Munger,1.0,Moderate,194,PM10
2023-05-07,Munger,1.0,Poor,216,PM10
2023-05-08,Munger,1.0,Poor,269,PM10
2023-05-09,Munger,1.0,Poor,204,PM10
2023-05-10,Munger,1.0,Poor,241,PM10
2023-05-11,Munger,1.0,Poor,270,PM10
2023-05-12,Munger,1.0,Poor,256,PM10
2023-05-13,Munger,1.0,Moderate,195,PM10
2023-05-14,Munger,1.0,Poor,214,PM10
2023-05-15,Munger,1.0,Moderate,184,PM10
2023-05-16,Munger,1.0,Moderate,186,PM10
2023-05-17,Munger,1.0,Poor,214,PM10
2023-05-18,Munger,1.0,Moderate,181,PM10
2023-05-19,Munger,1.0,Moderate,132,PM10
2023-05-20,Munger,1.0,Moderate,160,PM10
2023-05-21,Munger,1.0,Poor,210,PM10
2023-05-23,Munger,1.0,Moderate,140,PM10
2023-05-24,Munger,1.0,Satisfactory,91,PM10
2023-05-25,Munger,1.0,Moderate,146,PM10
2023-05-26,Munger,1.0,Satisfactory,93,PM10
2023-05-27,Munger,1.0,Moderate,112,PM10
2023-05-28,Munger,1.0,Moderate,159,CO
2023-05-29,Munger,1.0,Moderate,182,CO
2023-05-30,Munger,1.0,Moderate,178,PM10
2023-05-31,Munger,1.0,Moderate,195,PM10
2023-06-02,Munger,1.0,Moderate,193,PM10
2023-06-03,Munger,1.0,Poor,226,PM10
2023-06-04,Munger,1.0,Poor,230,PM10
2023-06-05,Munger,1.0,Poor,243,PM10
2023-06-06,Munger,1.0,Poor,245,PM10
2023-06-07,Munger,1.0,Poor,244,PM10
2023-06-08,Munger,1.0,Very Poor,305,PM10
2023-06-09,Munger,1.0,Very Poor,324,PM10
2023-06-10,Munger,1.0,Poor,250,PM10
2023-06-11,Munger,1.0,Moderate,160,PM10
2023-06-12,Munger,1.0,Moderate,182,PM10
2023-06-13,Munger,1.0,Moderate,175,PM10
2023-06-14,Munger,1.0,Moderate,155,PM10
2023-06-15,Munger,1.0,Poor,285,PM10
2023-06-16,Munger,1.0,Moderate,182,PM10
2023-06-27,Munger,1.0,Moderate,176,CO
2023-06-30,Munger,1.0,Good,48,PM10
2023-07-01,Munger,1.0,Satisfactory,83,NO2
2023-07-02,Munger,1.0,Moderate,101,PM2.5
2023-07-05,Munger,1.0,Satisfactory,53,PM10
2023-07-06,Munger,1.0,Moderate,176,PM10
2023-07-07,Munger,1.0,Moderate,119,PM10
2023-07-08,Munger,1.0,Moderate,147,PM10
2023-07-09,Munger,1.0,Satisfactory,99,PM10
2023-07-10,Munger,1.0,Moderate,163,PM10
2023-07-12,Munger,1.0,Moderate,124,PM10
2023-07-13,Munger,1.0,Moderate,150,PM10
2023-07-15,Munger,1.0,Satisfactory,87,PM10
2023-07-16,Munger,1.0,Satisfactory,85,PM10
2023-07-17,Munger,1.0,Satisfactory,99,CO
2023-07-18,Munger,1.0,Moderate,151,PM10
2023-07-19,Munger,1.0,Moderate,147,PM10
2023-07-20,Munger,1.0,Moderate,131,PM10
2023-07-21,Munger,1.0,Moderate,134,PM10
2023-07-22,Munger,1.0,Satisfactory,87,PM10
2023-07-23,Munger,1.0,Satisfactory,77,PM10
2023-07-24,Munger,1.0,Moderate,112,PM10
2023-07-25,Munger,1.0,Moderate,143,PM10
2023-07-26,Munger,1.0,Moderate,130,PM10
2023-07-27,Munger,1.0,Moderate,117,PM10
2023-07-28,Munger,1.0,Moderate,114,PM10
2023-07-29,Munger,1.0,Moderate,109,PM10
2023-07-30,Munger,1.0,Moderate,117,PM10
2023-07-31,Munger,1.0,Satisfactory,76,PM10
2023-08-03,Munger,1.0,Satisfactory,60,PM10
2023-08-04,Munger,1.0,Satisfactory,92,CO
2023-08-05,Munger,1.0,Satisfactory,93,PM10
2023-08-06,Munger,1.0,Satisfactory,64,PM10
2023-08-07,Munger,1.0,Good,42,PM10
2023-08-08,Munger,1.0,Good,43,PM10
2023-08-10,Munger,1.0,Satisfactory,61,PM10
2023-08-11,Munger,1.0,Moderate,162,PM10
2023-08-12,Munger,1.0,Satisfactory,98,PM10
2023-08-13,Munger,1.0,Moderate,122,PM10
2023-08-14,Munger,1.0,Moderate,142,PM10
2023-08-15,Munger,1.0,Moderate,159,PM10
2023-08-16,Munger,1.0,Moderate,152,PM10
2023-08-17,Munger,1.0,Satisfactory,89,PM10
2023-08-19,Munger,1.0,Satisfactory,56,PM10
2023-08-20,Munger,1.0,Satisfactory,82,PM10
2023-08-21,Munger,1.0,Moderate,106,PM10
2023-08-22,Munger,1.0,Moderate,128,PM2.5
2023-08-23,Munger,1.0,Satisfactory,54,PM10
2023-08-24,Munger,1.0,Satisfactory,64,PM10
2023-08-25,Munger,1.0,Good,32,PM10
2023-08-26,Munger,1.0,Satisfactory,89,PM10
2023-08-27,Munger,1.0,Moderate,138,PM10
2023-08-28,Munger,1.0,Moderate,180,PM2.5
2023-08-29,Munger,1.0,Poor,222,PM2.5
2023-08-30,Munger,1.0,Moderate,188,PM2.5
2023-08-31,Munger,1.0,Moderate,140,PM10
2023-09-01,Munger,1.0,Moderate,146,PM10
2023-09-02,Munger,1.0,Moderate,132,PM10
2023-09-03,Munger,1.0,Satisfactory,76,PM10
2023-09-04,Munger,1.0,Satisfactory,81,PM10
2023-09-07,Munger,1.0,Moderate,111,PM10
2023-09-09,Munger,1.0,Good,25,SO2
2023-09-10,Munger,1.0,Satisfactory,53,PM10
2023-09-11,Munger,1.0,Moderate,126,PM10
2023-09-12,Munger,1.0,Moderate,152,PM2.5
2023-09-13,Munger,1.0,Satisfactory,91,PM2.5
2023-09-14,Munger,1.0,Moderate,127,PM2.5
2023-09-15,Munger,1.0,Satisfactory,98,PM2.5
2023-09-16,Munger,1.0,Satisfactory,76,PM2.5
2023-09-17,Munger,1.0,Satisfactory,69,PM10
2023-09-18,Munger,1.0,Satisfactory,96,PM2.5
2023-09-19,Munger,1.0,Moderate,105,PM2.5
2023-09-20,Munger,1.0,Satisfactory,58,PM10
2023-09-22,Munger,1.0,Good,19,NO2
2023-09-23,Munger,1.0,Good,22,SO2
2023-09-24,Munger,1.0,Good,19,NO2
2023-09-27,Munger,1.0,Moderate,130,PM2.5
2023-09-28,Munger,1.0,Moderate,109,PM2.5
2023-10-01,Munger,1.0,Good,28,PM10
2023-10-03,Munger,1.0,Good,29,PM10
2023-10-04,Munger,1.0,Good,20,PM10
2023-10-06,Munger,1.0,Good,34,PM10
2023-10-07,Munger,1.0,Satisfactory,72,PM10
2023-10-09,Munger,1.0,Moderate,137,PM10
2023-10-12,Munger,1.0,Satisfactory,89,PM10
2023-10-13,Munger,1.0,Moderate,152,PM10
2023-10-14,Munger,1.0,Moderate,164,PM10
2023-10-15,Munger,1.0,Moderate,155,PM10
2023-10-17,Munger,1.0,Moderate,127,PM2.5
2023-10-18,Munger,1.0,Satisfactory,90,PM2.5
2023-10-19,Munger,1.0,Satisfactory,58,PM10
2023-10-20,Munger,1.0,Satisfactory,87,O3
2023-10-21,Munger,1.0,Satisfactory,99,PM2.5
2023-10-22,Munger,1.0,Moderate,105,PM2.5
2023-10-23,Munger,1.0,Moderate,107,PM2.5
2023-10-24,Munger,1.0,Satisfactory,100,PM2.5
2023-10-27,Munger,1.0,Moderate,106,PM2.5
2023-10-28,Munger,1.0,Moderate,119,PM2.5
2023-10-29,Munger,1.0,Moderate,131,PM2.5
2023-10-30,Munger,1.0,Moderate,128,PM2.5
2023-10-31,Munger,1.0,Moderate,133,PM10
2023-11-02,Munger,1.0,Moderate,107,PM10
2023-11-03,Munger,1.0,Moderate,116,PM10
2023-11-04,Munger,1.0,Moderate,121,PM10
2023-11-05,Munger,1.0,Moderate,154,PM10
2023-11-06,Munger,1.0,Moderate,172,PM10
2023-11-07,Munger,1.0,Moderate,183,PM10
2023-11-08,Munger,1.0,Moderate,188,PM2.5
2023-11-09,Munger,1.0,Moderate,136,PM10
2023-11-10,Munger,1.0,Moderate,160,PM10
2023-11-11,Munger,1.0,Moderate,165,PM10
2023-11-12,Munger,1.0,Moderate,150,PM10
2023-11-13,Munger,1.0,Moderate,149,PM10
2023-11-14,Munger,1.0,Moderate,111,PM10
2023-11-15,Munger,1.0,Moderate,112,PM10
2023-11-17,Munger,1.0,Moderate,108,PM10
2023-11-18,Munger,1.0,Satisfactory,82,PM10
2023-11-19,Munger,1.0,Satisfactory,90,PM10
2023-11-20,Munger,1.0,Satisfactory,74,PM10
2023-11-21,Munger,1.0,Moderate,118,PM10
2023-11-22,Munger,1.0,Moderate,138,PM10
2023-11-23,Munger,1.0,Moderate,141,PM10
2023-11-24,Munger,1.0,Moderate,169,PM2.5
2023-11-25,Munger,1.0,Moderate,178,PM2.5
2023-11-26,Munger,1.0,Moderate,166,PM2.5
2023-11-27,Munger,1.0,Moderate,138,PM2.5
2023-11-28,Munger,1.0,Moderate,133,PM2.5
2023-11-29,Munger,1.0,Moderate,121,PM2.5
2023-11-30,Munger,1.0,Moderate,166,PM2.5
2023-12-01,Munger,1.0,Poor,250,PM2.5